| time (UTC) | temp F | wind direction | speed MPH | gust MPH | rain 1hr in | rain 24hr in | rain mn in | humidity % | barometer mb |
| 20260505060218 | 63 | 355 | 1.0 | 2.0 | 0.00 | 0.00 | 0.00 | 92 | 1019.9 |
| 20260505060048 | 62 | 348 | 0.0 | 2.0 | 0.00 | 0.00 | 0.00 | 91 | 1019.8 |
| 20260505055239 | 64 | 116 | 1.0 | 2.0 | 0.00 | 0.00 | 0.00 | 93 | 1019.7 |
| 20260505054553 | 64 | 73 | 0.0 | 3.0 | 0.00 | 0.00 | 0.00 | 92 | 1019.6 |
| 20260505054239 | 64 | 0.0 | 1.0 | 0.00 | 0.00 | 0.00 | 91 | 1019.6 | |
| 20260505053218 | 65 | 50 | 1.0 | 2.0 | 0.00 | 0.00 | 0.00 | 91 | 1019.5 |
| 20260505053043 | 64 | 55 | 0.0 | 2.0 | 0.00 | 0.00 | 0.00 | 90 | 1019.5 |
| 20260505052239 | 65 | 0.0 | 0.0 | 0.00 | 0.00 | 0.00 | 92 | 1019.6 | |
| 20260505051541 | 64 | 0 | 0.0 | 2.0 | 0.00 | 0.00 | 0.00 | 92 | 1019.6 |
| 20260505051218 | 65 | 33 | 0.0 | 1.0 | 0.00 | 0.00 | 0.00 | 93 | 1019.6 |
| 20260505050300 | 65 | 23 | 2.0 | 3.0 | 0.00 | 0.00 | 0.00 | 94 | 1019.8 |
| 20260505041542 | 66 | 212 | 0.0 | 2.0 | 0.00 | 0.00 | 0.00 | 91 | 1019.5 |
| 20260505041218 | 67 | 0.0 | 1.0 | 0.00 | 0.00 | 0.00 | 91 | 1019.4 | |
| 20260505040218 | 68 | 0.0 | 0.0 | 0.00 | 0.00 | 0.00 | 89 | 1019.4 | |
| 20260505040043 | 67 | 209 | 0.0 | 3.0 | 0.00 | 0.00 | 0.00 | 88 | 1019.4 |
| 20260505035218 | 69 | 264 | 1.0 | 2.0 | 0.00 | 0.00 | 0.00 | 87 | 1019.4 |
| 20260505034540 | 68 | 0 | 0.0 | 3.0 | 0.00 | 0.00 | 0.00 | 89 | 1019.4 |
| 20260505034218 | 68 | 294 | 0.0 | 1.0 | 0.00 | 0.00 | 0.00 | 89 | 1019.4 |
| 20260505033218 | 68 | 251 | 2.0 | 3.0 | 0.00 | 0.00 | 0.00 | 89 | 1019.5 |
| 20260505033045 | 68 | 0 | 0.0 | 4.0 | 0.00 | 0.00 | 0.00 | 88 | 1019.4 |
| 20260505032218 | 69 | 274 | 2.0 | 3.0 | 0.00 | 0.00 | 0.00 | 88 | 1019.4 |
| 20260505031554 | 69 | 174 | 1.0 | 4.0 | 0.00 | 0.00 | 0.00 | 88 | 1019.4 |
| 20260505031218 | 70 | 275 | 1.0 | 4.0 | 0.00 | 0.00 | 0.00 | 88 | 1019.4 |
| 20260505030239 | 68 | 221 | 1.0 | 4.0 | 0.00 | 0.00 | 0.00 | 88 | 1019.1 |
| 20260505030046 | 68 | 224 | 2.0 | 6.0 | 0.00 | 0.00 | 0.00 | 88 | 1019.1 |
| 20260505025218 | 67 | 216 | 2.0 | 5.0 | 0.00 | 0.01 | 0.00 | 91 | 1019.0 |
| 20260505024548 | 66 | 307 | 2.0 | 5.0 | 0.00 | 0.02 | 0.00 | 91 | 1019.1 |
| 20260505024218 | 67 | 230 | 2.0 | 4.0 | 0.00 | 0.01 | 0.00 | 92 | 1019.1 |
| 20260505023218 | 67 | 213 | 3.0 | 5.0 | 0.00 | 0.01 | 0.00 | 90 | 1019.1 |
| 20260505023042 | 67 | 234 | 3.0 | 8.0 | 0.00 | 0.02 | 0.00 | 89 | 1019.2 |
| 20260505022218 | 69 | 273 | 1.0 | 4.0 | 0.00 | 0.01 | 0.00 | 89 | 1019.2 |
| 20260505021536 | 68 | 252 | 0.0 | 4.0 | 0.00 | 0.02 | 0.00 | 89 | 1019.1 |
| 20260505021218 | 68 | 227 | 2.0 | 4.0 | 0.00 | 0.02 | 0.00 | 90 | 1019.1 |
| 20260505020218 | 68 | 279 | 1.0 | 3.0 | 0.00 | 0.02 | 0.00 | 88 | 1019.3 |
| 20260505020048 | 67 | 205 | 1.0 | 7.0 | 0.00 | 0.02 | 0.00 | 88 | 1019.2 |
| 20260505015218 | 68 | 217 | 1.0 | 2.0 | 0.00 | 0.02 | 0.00 | 89 | 1019.3 |
| 20260505014600 | 68 | 220 | 2.0 | 7.0 | 0.00 | 0.02 | 0.00 | 87 | 1019.4 |
| 20260505014239 | 69 | 215 | 2.0 | 4.0 | 0.00 | 0.02 | 0.00 | 86 | 1019.5 |
| 20260505013239 | 71 | 246 | 2.0 | 3.0 | 0.00 | 0.02 | 0.00 | 85 | 1019.5 |
| 20260505013042 | 70 | 211 | 2.0 | 6.0 | 0.00 | 0.02 | 0.00 | 83 | 1019.5 |
| 20260505012239 | 72 | 320 | 2.0 | 3.0 | 0.00 | 0.02 | 0.00 | 83 | 1019.7 |
| 20260505011548 | 70 | 305 | 2.0 | 7.0 | 0.00 | 0.02 | 0.00 | 85 | 1019.5 |
| 20260505011218 | 70 | 279 | 2.0 | 3.0 | 0.00 | 0.02 | 0.00 | 85 | 1019.7 |
| 20260505010218 | 69 | 282 | 1.0 | 6.0 | 0.00 | 0.02 | 0.00 | 86 | 1019.9 |
| 20260505010037 | 69 | 259 | 1.0 | 7.0 | 0.00 | 0.02 | 0.00 | 87 | 1019.8 |
| 20260505005218 | 69 | 208 | 4.0 | 5.0 | 0.00 | 0.02 | 0.00 | 83 | 1020.0 |
| 20260505004544 | 68 | 236 | 2.0 | 7.0 | 0.00 | 0.02 | 0.00 | 84 | 1020.0 |
| 20260505004239 | 69 | 236 | 3.0 | 5.0 | 0.00 | 0.02 | 0.00 | 85 | 1020.0 |
| 20260505003218 | 68 | 217 | 3.0 | 5.0 | 0.00 | 0.02 | 0.00 | 88 | 1020.1 |
| 20260505003042 | 68 | 194 | 3.0 | 6.0 | 0.00 | 0.02 | 0.00 | 87 | 1019.9 |
| 20260505002218 | 68 | 228 | 3.0 | 5.0 | 0.00 | 0.02 | 0.00 | 91 | 1020.2 |
| 20260505001545 | 67 | 188 | 2.0 | 6.0 | 0.00 | 0.02 | 0.00 | 90 | 1020.1 |
| 20260505001219 | 68 | 224 | 4.0 | 6.0 | 0.00 | 0.02 | 0.00 | 90 | 1020.3 |
| 20260505000219 | 69 | 197 | 1.0 | 2.0 | 0.00 | 0.02 | 0.00 | 90 | 1020.3 |
| 20260505000044 | 68 | 214 | 1.0 | 6.0 | 0.00 | 0.02 | 0.00 | 90 | 1020.2 |
| 20260504235218 | 69 | 230 | 2.0 | 5.0 | 0.00 | 0.02 | 0.00 | 89 | 1020.3 |
| 20260504234539 | 68 | 283 | 1.0 | 6.0 | 0.00 | 0.02 | 0.00 | 88 | 1020.3 |
| 20260504234218 | 68 | 236 | 2.0 | 3.0 | 0.00 | 0.02 | 0.00 | 86 | 1020.4 |
| 20260504233218 | 68 | 218 | 2.0 | 4.0 | 0.00 | 0.02 | 0.00 | 89 | 1020.6 |
| 20260504233046 | 68 | 286 | 2.0 | 7.0 | 0.00 | 0.02 | 0.00 | 88 | 1020.4 |
| 20260504232218 | 69 | 245 | 1.0 | 3.0 | 0.00 | 0.02 | 0.00 | 88 | 1020.5 |
| 20260504231542 | 68 | 227 | 1.0 | 7.0 | 0.00 | 0.02 | 0.00 | 86 | 1020.5 |
| 20260504231218 | 69 | 236 | 1.0 | 3.0 | 0.00 | 0.02 | 0.00 | 87 | 1020.5 |
| 20260504230218 | 69 | 230 | 2.0 | 3.0 | 0.00 | 0.02 | 0.00 | 87 | 1020.5 |
| 20260504230046 | 68 | 243 | 1.0 | 6.0 | 0.00 | 0.02 | 0.00 | 85 | 1020.4 |
| 20260504225218 | 69 | 233 | 2.0 | 5.0 | 0.00 | 0.02 | 0.00 | 86 | 1020.5 |
| 20260504224546 | 69 | 312 | 2.0 | 6.0 | 0.00 | 0.02 | 0.00 | 85 | 1020.5 |
| 20260504224218 | 70 | 291 | 3.0 | 6.0 | 0.00 | 0.02 | 0.00 | 84 | 1020.4 |
| 20260504223239 | 71 | 224 | 4.0 | 7.0 | 0.00 | 0.02 | 0.00 | 81 | 1020.4 |
| 20260504223040 | 71 | 305 | 1.0 | 7.0 | 0.00 | 0.02 | 0.00 | 81 | 1020.4 |
| 20260504222218 | 71 | 243 | 1.0 | 2.0 | 0.00 | 0.02 | 0.00 | 80 | 1020.6 |
| 20260504221545 | 70 | 229 | 1.0 | 5.0 | 0.00 | 0.02 | 0.00 | 84 | 1020.5 |
| 20260504221318 | 70 | 256 | 2.0 | 4.0 | 0.00 | 0.02 | 0.00 | 85 | 1020.7 |
| 20260504220318 | 70 | 226 | 1.0 | 3.0 | 0.00 | 0.02 | 0.00 | 83 | 1020.8 |
| 20260504220046 | 69 | 0 | 1.0 | 4.0 | 0.00 | 0.02 | 0.00 | 83 | 1020.8 |
| 20260504215318 | 69 | 250 | 1.0 | 2.0 | 0.00 | 0.02 | 0.00 | 85 | 1020.8 |
| 20260504214551 | 68 | 254 | 1.0 | 6.0 | 0.00 | 0.02 | 0.00 | 86 | 1020.9 |
| 20260504214339 | 69 | 248 | 2.0 | 6.0 | 0.00 | 0.02 | 0.00 | 86 | 1021.0 |
| 20260504213339 | 69 | 225 | 3.0 | 4.0 | 0.00 | 0.02 | 0.00 | 88 | 1021.0 |
| 20260504213041 | 68 | 258 | 0.0 | 4.0 | 0.00 | 0.02 | 0.00 | 89 | 1021.0 |
| 20260504212318 | 69 | 281 | 2.0 | 4.0 | 0.00 | 0.02 | 0.00 | 90 | 1021.0 |
| 20260504211541 | 67 | 313 | 1.0 | 8.0 | 0.00 | 0.02 | 0.00 | 88 | 1021.1 |
| 20260504211319 | 68 | 238 | 2.0 | 4.0 | 0.00 | 0.02 | 0.00 | 89 | 1021.2 |
| 20260504210318 | 68 | 260 | 1.0 | 3.0 | 0.00 | 0.02 | 0.00 | 92 | 1021.0 |
| 20260504210058 | 67 | 0 | 1.0 | 5.0 | 0.00 | 0.02 | 0.00 | 91 | 1020.9 |
| 20260504205318 | 67 | 219 | 2.0 | 5.0 | 0.00 | 0.02 | 0.00 | 89 | 1021.1 |
| 20260504204557 | 67 | 319 | 1.0 | 6.0 | 0.00 | 0.02 | 0.00 | 90 | 1021.1 |
| 20260504204318 | 67 | 231 | 1.0 | 2.0 | 0.00 | 0.02 | 0.00 | 89 | 1021.2 |
| 20260504203319 | 68 | 288 | 2.0 | 4.0 | 0.00 | 0.02 | 0.00 | 89 | 1021.3 |
| 20260504203056 | 68 | 327 | 1.0 | 5.0 | 0.00 | 0.02 | 0.00 | 88 | 1021.3 |
| 20260504202318 | 68 | 242 | 1.0 | 1.0 | 0.00 | 0.02 | 0.00 | 89 | 1021.3 |
| 20260504201542 | 68 | 236 | 2.0 | 6.0 | 0.00 | 0.02 | 0.00 | 88 | 1021.3 |
| 20260504201318 | 68 | 228 | 2.0 | 4.0 | 0.00 | 0.02 | 0.00 | 91 | 1021.3 |
| 20260504200340 | 67 | 219 | 2.0 | 4.0 | 0.00 | 0.02 | 0.00 | 88 | 1021.3 |
| 20260504200041 | 67 | 216 | 3.0 | 6.0 | 0.00 | 0.02 | 0.00 | 87 | 1021.2 |
| 20260504195318 | 68 | 307 | 2.0 | 3.0 | 0.00 | 0.02 | 0.00 | 88 | 1021.2 |
| 20260504194547 | 67 | 312 | 0.0 | 7.0 | 0.00 | 0.02 | 0.00 | 87 | 1021.2 |
| 20260504194318 | 67 | 220 | 0.0 | 3.0 | 0.00 | 0.02 | 0.00 | 88 | 1021.2 |
| 20260504193318 | 67 | 279 | 1.0 | 2.0 | 0.00 | 0.02 | 0.00 | 87 | 1021.2 |
| 20260504193044 | 66 | 0 | 0.0 | 4.0 | 0.00 | 0.02 | 0.00 | 87 | 1021.1 |
| 20260504192318 | 67 | 328 | 2.0 | 3.0 | 0.00 | 0.02 | 0.00 | 88 | 1021.2 |
| 20260504191542 | 67 | 307 | 2.0 | 5.0 | 0.00 | 0.02 | 0.00 | 86 | 1021.1 |
| 20260504191339 | 67 | 226 | 3.0 | 4.0 | 0.00 | 0.02 | 0.00 | 86 | 1021.2 |
| 20260504190318 | 67 | 327 | 2.0 | 6.0 | 0.00 | 0.02 | 0.00 | 85 | 1021.3 |
| 20260504190042 | 67 | 349 | 2.0 | 6.0 | 0.00 | 0.02 | 0.00 | 82 | 1021.3 |
| 20260504185339 | 68 | 337 | 2.0 | 4.0 | 0.00 | 0.02 | 0.00 | 81 | 1021.4 |
| 20260504184541 | 68 | 307 | 1.0 | 4.0 | 0.00 | 0.02 | 0.00 | 77 | 1021.1 |
| 20260504184318 | 68 | 329 | 1.0 | 2.0 | 0.00 | 0.02 | 0.00 | 79 | 1021.3 |
| 20260504183319 | 67 | 0.0 | 0.0 | 0.00 | 0.02 | 0.00 | 80 | 1021.2 | |
| 20260504183041 | 67 | 0 | 0.0 | 4.0 | 0.00 | 0.02 | 0.00 | 80 | 1021.2 |
| 20260504182339 | 67 | 356 | 3.0 | 4.0 | 0.00 | 0.02 | 0.00 | 75 | 1021.2 |
| 20260504181545 | 67 | 327 | 1.0 | 4.0 | 0.00 | 0.02 | 0.00 | 72 | 1021.3 |
| 20260504181318 | 67 | 329 | 1.0 | 3.0 | 0.00 | 0.02 | 0.00 | 72 | 1021.3 |
| 20260504180340 | 66 | 249 | 1.0 | 1.0 | 0.00 | 0.02 | 0.00 | 79 | 1021.2 |
| 20260504180044 | 66 | 0 | 0.0 | 2.0 | 0.00 | 0.02 | 0.00 | 77 | 1021.1 |
| 20260504175318 | 65 | 0.0 | 0.0 | 0.00 | 0.02 | 0.00 | 82 | 1021.1 | |
| 20260504174543 | 64 | 0 | 0.0 | 3.0 | 0.00 | 0.02 | 0.00 | 78 | 1020.9 |
| 20260504174319 | 64 | 0.0 | 2.0 | 0.00 | 0.02 | 0.00 | 78 | 1021.0 | |
| 20260504173339 | 62 | 19 | 3.0 | 3.0 | 0.00 | 0.02 | 0.00 | 80 | 1020.9 |
| 20260504173049 | 62 | 27 | 1.0 | 2.0 | 0.00 | 0.02 | 0.00 | 80 | 1020.9 |
| 20260504172617 | 61 | 141 | 0.0 | 1.0 | 0.00 | 0.02 | 0.00 | 81 | 1021.0 |
| 20260504171638 | 60 | 130 | 2.0 | 3.0 | 0.00 | 0.02 | 0.00 | 80 | 1020.8 |
| 20260504171542 | 59 | 125 | 1.0 | 3.0 | 0.00 | 0.02 | 0.00 | 80 | 1020.8 |
| 20260504170618 | 59 | 112 | 2.0 | 3.0 | 0.00 | 0.02 | 0.00 | 81 | 1020.7 |
| 20260504150718 | 57 | 114 | 3.0 | 4.0 | 0.00 | 0.02 | 0.00 | 85 | 1019.5 |
| 20260504140717 | 57 | 98 | 3.0 | 4.0 | 0.00 | 0.02 | 0.00 | 85 | 1019.1 |
| 20260504130718 | 58 | 114 | 2.0 | 4.0 | 0.00 | 0.02 | 0.00 | 87 | 1019.2 |
| 20260504110519 | 58 | 118 | 3.0 | 4.0 | 0.00 | 0.02 | 0.00 | 88 | 1020.1 |
| 20260504100519 | 59 | 101 | 2.0 | 3.0 | 0.00 | 0.02 | 0.00 | 89 | 1020.6 |
| 20260504081541 | 59 | 124 | 2.0 | 4.0 | 0.00 | 0.02 | 0.02 | 89 | 1021.1 |
| 20260504081519 | 59 | 109 | 2.0 | 3.0 | 0.00 | 0.02 | 0.00 | 89 | 1021.1 |
| 20260504080601 | 59 | 102 | 2.0 | 3.0 | 0.00 | 0.02 | 0.00 | 89 | 1021.2 |